Regional Weather Roundup
Issued by NWS

Home | Current Version | Previous Version | Text Only | Print | Product List | Glossary On
Versions: 1 2 3 4 5 6 7 8 9 10 11 12 13 14 15 16 17 18 19 20 21 22 23 24 25 26 27 28 29 30 31 32 33 34 35 36 37 38 39 40 41 42 43 44 45 46 47 48 49 50
121
ASUS43 KDTX 131701
RWRMI
MICHIGAN HOURLY REGIONAL WEATHER ROUNDUP
NATIONAL WEATHER SERVICE DETROIT/PONTIAC MI
1200 PM EST SAT FEB 13 2016

NOTE: "FAIR" INDICATES FEW OR NO CLOUDS BELOW 12,000 FEET WITH NO
SIGNIFICANT WEATHER AND/OR OBSTRUCTION TO VISIBILITY.

MIZ047>049-052>055-059>063-066>070-074>076-081>083-131800-
SOUTHEAST LOWER MICHIGAN

CITY           SKY/WX    TMP DP  RH WIND       PRES   REMARKS
ADRIAN         CLOUDY    13  -2  51 NW14G21   30.45S WCI  -2
ALMA           MOSUNNY   14   2  57 W14       30.43S WCI  -1
ANN ARBOR      CLOUDY    13  -3  49 W16G22    30.43S WCI  -3
DETROIT CITY   CLOUDY    11  -1  58 NW14G20   30.45R WCI  -5
DETROIT        PTSUNNY   14  -1  51 NW16      30.45S WCI  -2
FLINT          CLOUDY    10  -2  58 VRB7      30.43S WCI  -1
GROSSE ILE     CLOUDY    12   1  62 NW13      30.44S WCI  -3
HILLSDALE      PTSUNNY   11   0  61 NW14      30.42R WCI  -5
HOWELL         LGT SNOW  12   2  64 W13G18    30.40S WCI  -2

CITY           SKY/WX    TMP DP  RH WIND       PRES   REMARKS
JACKSON        PTSUNNY   13  -3  49 NW15G24   30.42S WCI  -3
LAMBERTVILLE   PTSUNNY   14   2  57 W7        30.46F WCI   4
LANSING        CLOUDY    13  -2  51 NW10G21   30.44R WCI   0
LAPEER         CLOUDY     4  -6  62 N6        30.43S WCI  -6
MASON          CLOUDY    12   2  62 NW9G18    30.42S WCI   0
MONROE         CLOUDY    13   1  57 W10       30.45S WCI   0
PONTIAC        PTSUNNY    8   0  69 NW15G22   30.40R WCI  -9
PORT HOPE        N/A      5  -4  66 NW20G32   30.41R WCI -15
PORT HURON     MOSUNNY    7  -8  51 NW9       30.44S WCI  -7
TRI CITIES     PTSUNNY    5  -9  52 NE5       30.47R WCI  -4
MIDLAND        FAIR       5  -8  55 CALM      30.46S
TROY           PTSUNNY   12   0  58 NW8G22    30.45S WCI   0
SAGINAW HB     CLOUDY     5  -2  72 E3        30.47R HAZE
$$
MIZ043>046-050>051-056>058-064>065-071>073-077>080-131800-
SOUTHWEST LOWER MICHIGAN

CITY           SKY/WX    TMP DP  RH WIND       PRES   REMARKS
BATTLE CREEK   PTSUNNY   13   1  59 NW18G26   30.46R WCI  -4
BENTON HARBOR  LGT SNOW  15   6  67 NW9G21    30.53R WCI   3
BIG RAPIDS     CLOUDY    12  -2  54 NW13G24   30.40R HAZE    WCI  -3
COLDWATER      PTSUNNY   12   4  67 W9        30.46R WCI   0
FREMONT        CLOUDY    12   1  60 NW15G22   30.46R WCI  -4
HOLLAND        LGT SNOW  14   7  73 NW10G24   30.50R VSB 1   WCI   1
GRAND RAPIDS   CLOUDY    14   1  56 NW15G23   30.47R WCI  -1
IONIA          CLOUDY    13  -2  50 NW13G18   30.44R WCI  -1
KALAMAZOO      LGT SNOW  14   7  73 NW7       30.47R WCI   4
LUDINGTON      CLOUDY    11   2  66 NW9       30.49R WCI  -2
MARSHALL       CLOUDY    14   2  58 W12G18    30.44R WCI   0
MOUNT PLEASANT CLOUDY     9   1  69 N3        30.43R
MUSKEGON       LGT SNOW  13   6  74 NW9       30.50R VSB 3/4 WCI   1
SOUTH HAVEN    CLOUDY    16   6  65 NW14G22   30.51R HAZE    WCI   1
$$
MIZ016>042-131800-
NORTHERN LOWER MICHIGAN

CITY           SKY/WX    TMP DP  RH WIND       PRES   REMARKS
ALPENA         MIX PCPN   0 -12  57 NW9       30.43S WCI -15
BEAVER ISLAND  CLOUDY     7  -1  68 NW3       30.43R
BELLAIRE       SUNNY      4  -9  54 CALM      30.46R
CADILLAC       LGT SNOW   8   1  73 NW12      30.35R WCI  -7
CHARLEVOIX     MOSUNNY    3  -8  59 E6        30.45F WCI  -8
FRANKFORT      LGT SNOW  11   4  71 N10G20    30.45R WCI  -2
GAYLORD        SUNNY     -1 -12  59 SE3       30.35S
GRAYLING       SUNNY      0 -10  62 CALM      30.39S
HARBOR SPRINGS SUNNY      2 -10  56 SW6       30.43S WCI  -9
HOUGHTON LAKE  FLURRIES   1  -9  62 SW7       30.39S WCI -12
MANISTEE       CLOUDY    10   1  67 NW12G22   30.46R WCI  -4
OSCODA         SUNNY      2 -13  49 N14       30.43F WCI -16
PELLSTON       SUNNY      0 -12  57 E3        30.43F
ROGERS CITY    CLOUDY     0  -8  68 W3        30.45S HAZE
TRAVERSE CITY  CLOUDY     7  -1  70 E5        30.44R WCI  -2
$$
MIZ007>008-015-131800-
EASTERN UPPER MICHIGAN

CITY           SKY/WX    TMP DP  RH WIND       PRES   REMARKS
KINROSS        SUNNY      3 -11  51 W3        30.42S
MACKINAC ISLAN PTSUNNY   -1 -11  62 CALM      30.43S
NEWBERRY       CLOUDY     0  -6  77 SW6       30.39F HAZE    WCI -12
S. S. MARIE    PTSUNNY   -7 -18  59 SW7       30.42S WCI -21
$$
MIZ004>006-011>014-085-131800-
CENTRAL UPPER MICHIGAN

CITY           SKY/WX    TMP DP  RH WIND       PRES   REMARKS
MANISTIQUE     LGT SNOW   8   1  76 W5        30.42S VSB 3/4 WCI  -1
ESCANABA       SUNNY      9  -6  52 NW12G18   30.47R WCI  -6
MENOMINEE      SUNNY      7  -8  51 NW13      30.51S WCI  -9
SAWYER-GWINN   MOSUNNY    3  -6  66 NW18      30.40R WCI -17
$$
MIZ001>003-009>011-084-131800-
WESTERN UPPER MICHIGAN

CITY           SKY/WX    TMP DP  RH WIND       PRES   REMARKS
IRON MOUNTAIN  MIX PCPN   5  -6  60 NW13      30.44F WCI -12
HOUGHTON       LGT SNOW   4  -4  69 NW13G22   30.45S VSB 3/4 WCI -13
COPPER HARBOR    N/A      6   0  76 N23G29    30.47R WCI -15
IRONWOOD       CLOUDY    -2  -6  84 W9        30.48F WCI -18
$$

ABBREVIATIONS USED IN REMARKS
   TC - TEMPERATURE IN CELSIUS
  WCI - WIND CHILL INDEX
   HX - HEAT INDEX
  VSB - VISIBILITY





USA.gov is the U.S. government's official web portal to all federal, state and local government web resources and services.